TimeMST,TemperatureF,Dew PointF,Humidity,Sea Level PressureIn,VisibilityMPH,Wind Direction,Wind SpeedMPH,Gust SpeedMPH,PrecipitationIn,Events,Conditions,WindDirDegrees,DateUTC
12:15 AM,-11.2,-14.8,84,30.36,10.0,NNE,5.8,-,N/A,,Clear,20,2013-01-03 07:15:00
12:35 AM,-13.0,-16.6,84,30.35,10.0,NNE,4.6,-,N/A,,Clear,30,2013-01-03 07:35:00
12:55 AM,-14.8,-16.6,92,30.35,10.0,NNE,4.6,-,N/A,,Clear,30,2013-01-03 07:55:00
1:15 AM,-14.8,-16.6,92,30.35,10.0,NE,5.8,-,N/A,,Clear,40,2013-01-03 08:15:00
1:35 AM,-14.8,-16.6,92,30.36,10.0,North,8.1,-,N/A,,Clear,10,2013-01-03 08:35:00
1:55 AM,-14.8,-18.4,84,30.36,10.0,NNE,4.6,-,N/A,,Clear,30,2013-01-03 08:55:00
2:15 AM,-13.0,-14.8,92,30.37,10.0,North,4.6,-,N/A,,Clear,10,2013-01-03 09:15:00
2:35 AM,-13.0,-16.6,84,30.38,10.0,North,6.9,-,N/A,,Clear,360,2013-01-03 09:35:00
2:55 AM,-14.8,-18.4,84,30.38,10.0,North,6.9,-,N/A,,Clear,10,2013-01-03 09:55:00
3:15 AM,-14.8,-16.6,92,30.38,10.0,NNE,6.9,-,N/A,,Clear,20,2013-01-03 10:15:00
3:35 AM,-14.8,-16.6,92,30.38,10.0,North,9.2,-,N/A,,Clear,10,2013-01-03 10:35:00
3:55 AM,-16.6,-18.4,92,30.37,10.0,NNE,3.5,-,N/A,,Clear,30,2013-01-03 10:55:00
4:15 AM,-14.8,-18.4,84,30.36,10.0,NNE,4.6,-,N/A,,Clear,30,2013-01-03 11:15:00
4:35 AM,-16.6,-20.2,84,30.36,10.0,North,4.6,-,N/A,,Clear,10,2013-01-03 11:35:00
4:55 AM,-16.6,-20.2,84,30.36,10.0,North,4.6,-,N/A,,Clear,10,2013-01-03 11:55:00
5:15 AM,-18.4,-20.2,91,30.36,10.0,North,9.2,-,N/A,,Clear,10,2013-01-03 12:15:00
5:55 AM,-16.6,-18.4,92,30.36,10.0,NNW,5.8,-,N/A,,Clear,340,2013-01-03 12:55:00
6:51 AM,-16.6,-18.4,92,30.37,10.0,North,3.5,-,N/A,,Clear,10,2013-01-03 13:51:00
8:53 AM,-14.8,-18.4,84,30.37,10.0,Calm,Calm,-,N/A,,Clear,0,2013-01-03 15:53:00
9:53 AM,-9.4,-13.0,84,30.38,10.0,Calm,Calm,-,N/A,,Clear,0,2013-01-03 16:53:00
10:51 AM,-5.8,-7.6,92,30.38,10.0,Calm,Calm,-,N/A,,Clear,0,2013-01-03 17:51:00
11:59 AM,-0.4,-4.0,85,30.25,10.0,Calm,Calm,-,N/A,,Clear,0,2013-01-03 18:59:00
12:52 PM,1.4,-2.2,85,30.34,10.0,Calm,Calm,-,N/A,,Clear,0,2013-01-03 19:52:00
1:54 PM,3.2,-0.4,85,30.33,10.0,South,3.5,-,N/A,,Clear,170,2013-01-03 20:54:00
2:53 PM,5.0,-0.4,78,30.33,10.0,SSE,3.5,-,N/A,,Clear,160,2013-01-03 21:53:00
3:51 PM,3.2,-0.4,85,30.33,10.0,ESE,3.5,-,N/A,,Clear,110,2013-01-03 22:51:00
4:51 PM,1.4,-2.2,85,30.34,10.0,Calm,Calm,-,N/A,,Clear,0,2013-01-03 23:51:00
5:55 PM,-2.2,-4.0,92,30.35,10.0,North,5.8,-,N/A,,Clear,360,2013-01-04 00:55:00
6:52 PM,-5.8,-7.6,92,30.36,10.0,North,6.9,-,N/A,,Clear,360,2013-01-04 01:52:00
7:55 PM,-9.4,-11.2,92,30.36,10.0,NNW,5.8,-,N/A,,Clear,340,2013-01-04 02:55:00
8:51 PM,-11.2,-13.0,92,30.35,10.0,North,4.6,-,N/A,,Clear,10,2013-01-04 03:51:00
9:15 PM,-9.4,-11.2,92,30.34,10.0,NNE,5.8,-,N/A,,Clear,30,2013-01-04 04:15:00
9:35 PM,-9.4,-13.0,84,30.34,10.0,NNE,4.6,-,N/A,,Clear,20,2013-01-04 04:35:00
9:56 PM,-14.8,-16.6,92,30.35,10.0,North,4.6,-,N/A,,Clear,10,2013-01-04 04:56:00
10:15 PM,-9999,-9999,N/A,30.35,10.0,North,5.8,-,N/A,,Clear,10,2013-01-04 05:15:00
10:35 PM,-13.0,-14.8,92,30.35,10.0,NNE,5.8,-,N/A,,Clear,20,2013-01-04 05:35:00
10:55 PM,-13.0,-16.6,84,30.35,10.0,North,9.2,-,N/A,,Clear,10,2013-01-04 05:55:00
11:15 PM,-13.0,-16.6,84,30.35,10.0,North,10.4,-,N/A,,Clear,10,2013-01-04 06:15:00
11:35 PM,-11.2,-14.8,84,30.35,10.0,North,10.4,-,N/A,,Clear,10,2013-01-04 06:35:00
11:55 PM,-13.0,-14.8,92,30.34,10.0,North,10.4,-,N/A,,Clear,10,2013-01-04 06:55:00